CAPE
1064 918 634 423 421 262 123 94 30 2 4 7 5 1 4 5 1 3 3 0 0 0 0 0 0 0 0 0 0 0 0 0 0 0 0 0 0 0 0 0 0 0
749 675 539 433 350 104 143 118 26 3 8 11 5 4 2 1 4 2 1 0 0 0 0 0 0 0 0 0 0 0 0 0 0 0 0 0 0 0 0 0 0 0
617 675 736 449 335 200 286 60 28 34 4 3 1 2 3 0 3 0 0 0 0 0 0 0 0 0 0 0 0 0 0 0 0 0 0 0 0 0 0 0 0 0
696 584 595 371 316 180 188 42 14 19 4 0 0 7 2 0 0 1 0 0 0 0 0 0 0 0 0 0 0 0 0 0 0 0 0 0 0 0 0 0 0 0
711 630 499 395 327 116 26 22 18 31 95 3 0 0 0 0 0 0 0 0 0 0 0 0 0 0 0 0 0 0 0 0 0 0 0 0 0 0 0 0 0 0
773 666 492 382 293 183 24 85 70 120 137 127 0 0 0 0 0 0 0 0 0 0 0 0 0 0 0 0 0 0 0 0 0 0 0 0 0 0 0 0 0 0
797 691 463 430 318 227 193 130 126 220 206 149 0 0 0 0 0 0 0 0 0 0 0 0 0 0 0 0 0 0 0 0 0 0 0 0 0 0 0 0 0 0
789 606 551 405 311 274 240 142 227 240 224 160 0 0 0 0 0 0 0 0 0 0 0 0 0 0 0 0 0 0 0 0 0 0 0 0 0 0 0 0 0 0
733 589 538 390 341 296 187 201 295 304 226 228 92 0 0 0 0 0 0 0 0 0 0 0 0 0 0 0 0 0 0 0 0 0 0 0 0 0 0 0 0 0
697 615 458 373 290 259 222 262 310 337 240 226 0 0 0 0 0 8 214 14 0 146 182 135 121 6 0 0 0 0 0 0 0 0 0 0 0 0 0 0 0 0
695 502 437 331 288 262 344 388 381 350 258 256 0 0 0 0 0 258 252 192 155 205 184 172 158 102 0 0 0 0 0 0 0 0 0 0 0 0 0 0 0 0
774 484 366 294 324 400 472 480 404 362 353 281 0 0 0 0 43 295 265 232 224 217 215 196 133 30 0 0 0 0 0 0 0 0 0 0 0 0 0 0 0 0
752 534 372 408 506 536 540 516 446 423 326 285 215 0 0 13 287 303 298 296 254 234 221 189 112 77 0 0 0 0 0 0 0 0 0 0 0 0 0 0 0 0
735 628 503 493 611 641 656 585 460 377 305 294 312 290 0 14 290 316 341 328 278 237 200 147 113 56 0 0 0 0 0 0 0 0 0 0 0 0 0 0 0 0
796 712 504 472 617 661 618 452 389 384 352 318 342 370 281 212 282 385 343 249 287 294 242 187 153 119 12 0 0 0 0 0 0 0 0 0 0 0 0 0 0 0
786 687 552 471 492 440 438 384 457 470 395 323 347 398 458 195 229 216 290 189 171 186 203 154 39 33 0 0 0 5 0 0 0 0 0 0 0 0 0 0 0 0
631 484 415 382 456 433 500 450 463 509 377 358 358 372 372 300 0 0 24 0 0 0 0 0 1 0 0 0 0 0 0 0 0 0 0 0 0 0 0 0 0 0
773 579 428 348 391 459 425 348 486 326 276 117 135 99 205 211 176 63 13 12 58 39 11 0 0 0 0 0 0 0 0 0 0 0 0 0 0 0 0 0 0 0
807 652 469 442 487 402 336 359 336 206 223 219 183 0 0 8 10 151 129 79 45 0 0 0 0 0 0 0 0 0 0 0 0 0 0 0 0 0 0 0 0 0
616 482 396 430 400 378 317 369 426 386 231 220 222 204 166 153 169 151 78 44 28 10 0 0 0 0 0 0 0 0 0 0 0 0 0 0 0 0 0 0 0 0
392 345 371 367 348 375 382 414 399 320 268 204 108 240 218 74 68 63 75 59 33 0 0 0 0 0 0 0 0 0 0 0 0 0 0 0 0 0 0 0 0 0
381 351 330 359 475 475 468 465 394 367 355 364 273 241 0 0 0 118 93 34 5 0 0 0 0 0 0 0 0 0 0 0 0 0 0 0 0 0 0 0 0 0
305 291 320 399 538 529 466 374 307 336 335 243 112 209 32 75 18 0 0 0 1 0 0 1 0 0 0 0 0 0 0 0 0 0 0 0 0 0 0 0 0 0
392 400 366 415 490 508 443 367 328 312 342 300 170 153 95 2 15 24 0 1 0 0 0 0 0 0 0 0 0 0 0 0 0 0 0 0 0 0 0 0 0 0
523 542 562 486 406 453 510 450 370 325 305 262 202 148 71 65 70 49 6 0 3 2 0 0 0 0 0 0 0 0 0 0 0 0 0 0 0 0 0 0 0 0
645 620 605 534 420 380 412 371 326 296 239 152 186 121 42 50 110 12 0 0 57 1 1 0 0 0 0 0 0 0 0 0 0 0 0 0 0 0 0 0 0 0
Wind_Speed
27 23 21 22 20 20 20 nan nan nan nan nan nan nan nan nan nan nan nan nan nan nan nan nan nan nan nan nan nan nan nan nan nan nan nan nan nan nan nan nan nan nan
25 21 20 21 20 20 20 21 nan nan nan nan nan nan nan nan nan nan nan nan nan nan nan nan nan nan nan nan nan nan nan nan nan nan nan nan nan nan nan nan nan nan
26 22 25 23 23 23 22 nan nan nan nan nan nan nan nan nan nan nan nan nan nan nan nan nan nan nan nan nan nan nan nan nan nan nan nan nan nan nan nan nan nan nan
28 28 28 25 25 26 25 nan nan nan nan nan nan nan nan nan nan nan nan nan nan nan nan nan nan nan nan nan nan nan nan nan nan nan nan nan nan nan nan nan nan nan
29 29 28 26 28 29 nan nan nan nan nan nan nan nan nan nan nan nan nan nan nan nan nan nan nan nan nan nan nan nan nan nan nan nan nan nan nan nan nan nan nan nan
30 29 28 29 30 31 nan nan nan 25 24 23 nan nan nan nan nan nan nan nan nan nan nan nan nan nan nan nan nan nan nan nan nan nan nan nan nan nan nan nan nan nan
31 30 30 31 32 31 31 30 27 26 24 23 nan nan nan nan nan nan nan nan nan nan nan nan nan nan nan nan nan nan nan nan nan nan nan nan nan nan nan nan nan nan
31 31 33 32 32 32 32 30 27 25 24 23 nan nan nan nan nan nan nan nan nan nan nan nan nan nan nan nan nan nan nan nan nan nan nan nan nan nan nan nan nan nan
31 32 34 34 32 31 31 28 26 25 24 24 nan nan nan nan nan nan nan nan nan nan nan nan nan nan nan nan nan nan nan nan nan nan nan nan nan nan nan nan nan nan
33 33 35 33 32 30 29 25 25 25 24 25 nan nan nan nan nan nan 32 nan nan 35 36 35 36 nan nan nan nan nan nan nan nan nan nan nan nan nan nan nan nan nan
32 34 34 33 31 29 28 26 26 26 25 27 nan nan nan nan nan 32 33 34 34 36 37 37 38 38 nan nan nan nan nan nan nan nan nan nan nan nan nan nan nan nan
32 32 34 33 31 30 29 28 27 27 28 29 nan nan nan nan nan 33 34 35 35 37 38 39 39 nan nan nan nan nan nan nan nan nan nan nan nan nan nan nan nan nan
32 32 34 31 30 30 29 29 28 28 29 31 32 nan nan nan 33 34 34 35 36 38 39 40 41 nan nan nan nan nan nan nan nan nan nan nan nan nan nan nan nan nan
31 32 33 30 29 28 28 28 28 29 30 33 34 35 nan nan 34 35 36 35 37 38 39 40 41 nan nan nan nan nan nan nan nan nan nan nan nan nan nan nan nan nan
31 32 31 29 28 28 26 26 28 29 31 33 35 34 33 36 36 37 37 37 38 38 40 39 40 42 nan nan nan nan nan nan nan nan nan nan nan nan nan nan nan nan
32 32 31 29 28 27 26 26 28 30 31 33 34 35 36 35 37 38 37 38 40 38 38 38 nan nan nan nan nan nan nan nan nan nan nan nan nan nan nan nan nan nan
31 31 30 29 29 27 27 28 30 31 31 33 34 36 36 37 nan nan nan nan nan nan nan nan nan nan nan nan nan nan nan nan nan nan nan nan nan nan nan nan nan nan
29 30 30 30 30 31 32 33 35 33 32 34 35 nan 37 36 36 nan nan nan nan nan nan nan nan nan nan nan nan nan nan nan nan nan nan nan nan nan nan nan nan nan
28 28 30 31 30 33 34 35 36 35 36 36 36 nan nan nan nan 38 38 nan nan nan nan nan nan nan nan nan nan nan nan nan nan nan nan nan nan nan nan nan nan nan
28 30 32 32 33 35 36 35 36 36 36 34 34 34 34 34 36 37 nan nan nan nan nan nan nan nan nan nan nan nan nan nan nan nan nan nan nan nan nan nan nan nan
31 32 33 33 35 36 35 34 34 35 34 34 34 33 33 nan nan nan nan nan nan nan nan nan nan nan nan nan nan nan nan nan nan nan nan nan nan nan nan nan nan nan
32 33 34 34 35 35 34 33 32 33 33 34 34 32 nan nan nan 32 nan nan nan nan nan nan nan nan nan nan nan nan nan nan nan nan nan nan nan nan nan nan nan nan
31 33 32 32 33 33 33 33 33 33 32 32 33 32 nan nan nan nan nan nan nan nan nan nan nan nan nan nan nan nan nan nan nan nan nan nan nan nan nan nan nan nan
29 31 31 31 31 32 32 32 33 32 33 33 33 33 nan nan nan nan nan nan nan nan nan nan nan nan nan nan nan nan nan nan nan nan nan nan nan nan nan nan nan nan
28 29 30 31 32 33 34 35 35 35 34 34 34 34 nan nan nan nan nan nan nan nan nan nan nan nan nan nan nan nan nan nan nan nan nan nan nan nan nan nan nan nan
28 29 31 33 34 34 35 36 36 36 36 36 37 37 nan nan 35 nan nan nan nan nan nan nan nan nan nan nan nan nan nan nan nan nan nan nan nan nan nan nan nan nan
Wind_Direction
277 273 285 291 288 285 287 nan nan nan nan nan nan nan nan nan nan nan nan nan nan nan nan nan nan nan nan nan nan nan nan nan nan nan nan nan nan nan nan nan nan nan
282 285 292 293 287 285 284 286 nan nan nan nan nan nan nan nan nan nan nan nan nan nan nan nan nan nan nan nan nan nan nan nan nan nan nan nan nan nan nan nan nan nan
291 294 298 296 290 291 287 nan nan nan nan nan nan nan nan nan nan nan nan nan nan nan nan nan nan nan nan nan nan nan nan nan nan nan nan nan nan nan nan nan nan nan
296 300 295 293 289 291 285 nan nan nan nan nan nan nan nan nan nan nan nan nan nan nan nan nan nan nan nan nan nan nan nan nan nan nan nan nan nan nan nan nan nan nan
296 294 292 292 280 283 nan nan nan nan nan nan nan nan nan nan nan nan nan nan nan nan nan nan nan nan nan nan nan nan nan nan nan nan nan nan nan nan nan nan nan nan
291 293 292 290 280 280 nan nan nan 279 280 279 nan nan nan nan nan nan nan nan nan nan nan nan nan nan nan nan nan nan nan nan nan nan nan nan nan nan nan nan nan nan
282 289 291 283 282 282 281 279 277 277 278 279 nan nan nan nan nan nan nan nan nan nan nan nan nan nan nan nan nan nan nan nan nan nan nan nan nan nan nan nan nan nan
290 289 284 281 282 283 281 279 276 274 276 280 nan nan nan nan nan nan nan nan nan nan nan nan nan nan nan nan nan nan nan nan nan nan nan nan nan nan nan nan nan nan
290 289 285 286 285 282 282 279 275 275 276 280 nan nan nan nan nan nan nan nan nan nan nan nan nan nan nan nan nan nan nan nan nan nan nan nan nan nan nan nan nan nan
282 282 285 287 285 281 282 279 276 275 277 279 nan nan nan nan nan nan 292 nan nan 292 291 291 289 nan nan nan nan nan nan nan nan nan nan nan nan nan nan nan nan nan
284 283 286 284 282 280 281 279 278 278 276 279 nan nan nan nan nan 291 291 291 291 293 293 292 291 291 nan nan nan nan nan nan nan nan nan nan nan nan nan nan nan nan
289 288 285 283 282 281 281 279 278 279 278 278 nan nan nan nan nan 288 288 290 292 293 292 291 291 nan nan nan nan nan nan nan nan nan nan nan nan nan nan nan nan nan
290 290 283 282 281 280 278 279 281 281 280 281 281 nan nan nan 286 286 286 289 291 290 291 291 291 nan nan nan nan nan nan nan nan nan nan nan nan nan nan nan nan nan
288 285 283 283 281 281 282 282 283 282 282 280 281 282 nan nan 286 286 285 287 288 289 290 291 291 nan nan nan nan nan nan nan nan nan nan nan nan nan nan nan nan nan
286 283 282 283 285 287 287 288 285 285 282 281 282 284 284 284 285 287 288 289 288 289 290 291 291 289 nan nan nan nan nan nan nan nan nan nan nan nan nan nan nan nan
285 285 286 287 286 288 288 290 289 286 284 285 285 282 280 286 286 287 291 290 291 291 290 292 nan nan nan nan nan nan nan nan nan nan nan nan nan nan nan nan nan nan
279 282 285 287 283 283 288 294 294 288 285 287 285 285 285 281 nan nan nan nan nan nan nan nan nan nan nan nan nan nan nan nan nan nan nan nan nan nan nan nan nan nan
279 284 285 284 286 285 285 284 281 285 288 287 287 nan 289 289 289 nan nan nan nan nan nan nan nan nan nan nan nan nan nan nan nan nan nan nan nan nan nan nan nan nan
282 284 285 289 291 287 283 281 285 287 286 285 287 nan nan nan nan 295 298 nan nan nan nan nan nan nan nan nan nan nan nan nan nan nan nan nan nan nan nan nan nan nan
286 285 284 286 285 282 282 287 289 289 290 289 288 287 287 288 288 292 nan nan nan nan nan nan nan nan nan nan nan nan nan nan nan nan nan nan nan nan nan nan nan nan
282 281 282 282 281 281 285 288 289 289 293 291 291 292 292 nan nan nan nan nan nan nan nan nan nan nan nan nan nan nan nan nan nan nan nan nan nan nan nan nan nan nan
279 280 280 280 282 284 287 289 290 293 294 293 294 294 nan nan nan 298 nan nan nan nan nan nan nan nan nan nan nan nan nan nan nan nan nan nan nan nan nan nan nan nan
281 281 281 283 285 288 291 291 293 294 291 291 295 297 nan nan nan nan nan nan nan nan nan nan nan nan nan nan nan nan nan nan nan nan nan nan nan nan nan nan nan nan
279 280 283 284 285 290 292 292 292 292 295 297 299 300 nan nan nan nan nan nan nan nan nan nan nan nan nan nan nan nan nan nan nan nan nan nan nan nan nan nan nan nan
278 280 283 286 289 290 291 293 295 296 297 298 299 300 nan nan nan nan nan nan nan nan nan nan nan nan nan nan nan nan nan nan nan nan nan nan nan nan nan nan nan nan
278 284 286 288 290 289 290 293 294 297 299 299 297 298 nan nan 298 nan nan nan nan nan nan nan nan nan nan nan nan nan nan nan nan nan nan nan nan nan nan nan nan nan